Theta_e
333 337 344 348 352 354 354 359 361 353 350 350 347 347 346 345 347 350 350 351 350 350 353 349 350 352 347 348 347 345 348 344
332 334 340 349 352 355 356 359 361 361 352 350 349 348 348 346 346 350 352 350 352 351 347 345 348 344 348 347 345 349 348 350
331 335 340 349 353 357 361 365 367 364 363 352 352 349 350 350 349 349 349 349 353 348 348 346 346 345 347 346 348 350 352 351
326 332 338 346 356 359 360 360 366 363 360 361 356 358 354 352 350 349 351 350 353 347 348 346 345 348 348 350 352 353 357 355
320 323 335 343 355 359 360 363 366 365 368 361 356 353 352 351 350 358 352 355 358 357 347 345 350 355 358 359 358 355 351 351
321 322 325 331 343 358 363 359 360 363 366 360 355 353 352 351 349 351 352 351 354 354 346 347 354 358 358 358 357 353 353 349
323 322 324 327 343 361 361 362 358 359 366 359 360 366 354 351 349 350 352 351 352 351 345 352 361 354 358 360 355 356 352 349
319 322 325 330 337 365 364 361 364 362 363 364 355 354 353 351 349 350 355 351 351 351 347 361 361 359 359 355 356 352 350 347
319 321 325 328 338 362 361 362 365 362 357 354 351 348 351 349 349 360 355 352 351 358 358 360 361 361 359 357 354 351 345 345
320 321 326 329 345 360 360 361 364 363 359 357 353 353 350 349 348 358 357 353 352 356 358 362 360 356 356 354 352 345 342 342
319 321 324 329 346 361 359 359 364 364 362 358 359 356 353 348 350 351 353 353 350 357 357 360 357 359 349 348 345 344 340 341
318 321 322 327 344 357 359 361 364 363 364 357 355 349 345 346 348 350 352 352 351 356 354 352 350 346 345 342 341 342 341 333
316 320 322 327 347 354 360 357 360 360 360 359 355 352 348 348 348 355 356 357 355 353 350 349 346 342 344 341 341 341 336 337
316 320 323 329 352 355 356 352 358 359 361 361 359 357 353 348 352 351 353 347 346 347 345 344 344 343 337 336 340 339 339 338
315 318 319 326 345 353 352 351 353 357 360 362 359 361 360 360 355 343 339 337 341 342 342 343 339 335 337 338 339 339 337 334
315 318 320 325 338 351 354 350 352 359 358 359 359 363 355 352 345 340 338 340 340 341 341 338 337 333 336 336 335 333 334 331
315 318 320 324 337 346 352 351 352 358 355 358 358 360 348 342 342 346 343 342 340 340 339 336 333 334 335 336 329 329 329 328
315 318 320 326 340 343 354 356 351 353 353 355 357 347 346 342 344 345 344 342 340 336 334 334 332 332 332 331 327 326 324 322
315 318 322 326 338 342 348 349 348 351 351 349 345 345 344 344 345 345 343 341 338 334 331 330 327 328 326 325 324 322 322 321
314 317 320 326 337 339 344 346 347 348 343 342 341 345 348 342 342 340 339 337 335 331 329 324 324 324 323 322 320 320 319 316
Wind_Speed
15 16 17 20 20 17 20 18 16 18 15 12 9 9 9 9 14 13 11 9 9 8 8 7 8 10 8 9 8 8 11 4
16 16 17 19 20 19 18 21 16 15 13 12 13 11 10 10 12 14 9 8 9 8 8 10 9 8 9 9 7 4 3 2
16 16 16 18 20 18 16 17 15 13 12 13 12 12 11 12 12 14 10 10 8 8 7 8 7 8 6 6 5 6 6 4
17 15 14 16 20 18 15 14 14 14 11 13 9 9 12 11 12 13 12 9 8 8 6 6 7 5 6 6 6 6 3 3
21 18 14 13 13 19 15 13 13 11 12 12 10 11 11 11 10 12 12 10 9 7 7 6 7 3 3 2 2 3 4 2
23 23 20 18 17 18 21 17 17 12 13 12 10 10 10 10 10 11 12 11 11 8 8 8 5 4 4 3 5 2 2 3
26 27 23 20 16 21 22 21 23 17 15 13 12 10 10 10 9 10 13 12 11 9 7 6 5 5 2 2 1 1 3 5
27 26 24 21 18 23 21 20 21 19 14 11 12 10 10 9 9 9 13 10 11 8 7 8 5 3 3 1 3 3 5 4
26 24 20 18 21 20 22 22 20 18 14 14 13 12 11 10 9 12 14 11 12 8 5 7 5 5 3 3 2 1 1 3
21 24 21 20 20 21 23 22 22 19 14 12 11 11 12 10 10 10 12 12 12 9 7 6 6 6 5 4 2 2 2 3
21 21 22 21 20 21 22 23 22 20 17 12 10 10 10 11 11 10 11 11 12 9 7 6 6 5 6 5 4 4 6 4
23 20 23 20 21 23 22 23 22 21 18 15 14 13 14 12 11 11 11 12 8 11 10 10 7 8 8 7 5 4 6 4
26 22 21 25 21 20 21 22 21 22 19 18 14 15 12 12 12 16 13 10 12 14 11 12 9 7 7 5 6 6 4 3
26 24 18 22 24 19 19 21 23 22 21 18 18 16 15 13 14 13 10 9 9 11 12 10 9 9 6 6 8 6 6 6
27 26 24 23 25 24 22 23 22 23 22 18 18 16 16 16 17 11 13 9 9 12 13 12 9 9 10 2 5 2 5 6
26 25 22 25 24 27 26 23 22 22 22 19 17 15 13 14 15 12 11 12 12 16 14 11 11 8 8 7 4 5 4 3
25 24 23 23 23 22 25 24 22 22 21 18 18 17 17 15 17 15 12 13 13 16 15 13 10 10 7 6 6 5 3 5
24 21 22 20 23 22 25 24 21 21 20 18 15 19 19 16 16 16 17 15 16 15 14 13 10 9 9 8 5 6 5 4
15 16 14 19 22 23 19 24 23 19 19 19 20 19 20 18 16 16 16 15 15 15 15 14 12 11 9 9 8 5 6 5
16 18 17 18 22 21 20 19 20 16 19 21 21 21 21 17 16 15 15 17 16 15 14 14 10 11 10 8 7 7 7 5
Wind_Direction
220 207 200 192 184 178 182 166 175 182 167 161 170 167 167 174 176 177 193 161 181 181 153 167 174 192 190 188 188 217 218 306
214 224 205 199 187 182 190 165 178 193 161 171 173 172 170 175 181 187 191 181 168 194 168 182 188 179 209 203 188 86 199 191
234 226 214 196 189 185 188 160 176 192 168 178 181 179 177 180 174 189 185 199 168 202 181 190 198 187 168 203 117 186 179 202
243 224 235 206 186 180 179 167 169 188 189 178 182 186 174 189 176 180 189 207 164 188 173 210 209 194 174 185 164 180 201 88
233 234 229 232 199 168 161 157 164 189 200 182 186 183 179 194 179 162 195 210 156 200 183 209 198 177 90 310 117 219 247 287
241 223 220 214 234 150 166 167 179 197 197 182 194 181 192 191 177 164 191 197 163 203 179 202 154 162 205 237 220 256 239 262
239 241 226 216 207 163 174 166 178 191 195 182 202 175 207 186 179 165 185 184 173 205 182 170 124 193 154 184 224 344 118 279
237 233 229 208 207 164 175 175 177 184 186 187 194 174 204 185 177 169 167 180 172 208 187 126 184 159 200 195 9 58 336 337
228 228 228 210 199 175 170 180 182 178 184 190 188 179 189 182 178 153 171 170 173 194 163 148 165 162 172 128 117 15 269 330
236 215 209 215 186 175 168 182 188 178 187 189 186 182 180 179 176 149 167 164 166 181 130 171 157 129 102 87 19 348 319 7
240 222 213 193 190 173 173 181 185 178 181 184 177 178 169 175 154 162 171 157 169 183 125 129 112 119 93 65 25 3 324 78
249 221 214 210 185 170 179 185 183 176 175 183 176 182 174 172 161 167 147 160 154 108 110 105 102 98 89 66 37 331 314 39
236 237 196 220 184 179 181 183 179 172 187 180 172 183 168 167 166 131 149 145 131 115 116 123 114 98 109 142 70 11 317 322
228 221 217 213 171 179 185 182 178 175 186 176 176 176 171 164 145 142 128 107 106 114 121 116 107 97 76 50 56 13 5 359
222 217 204 203 186 173 184 182 180 175 179 172 175 182 167 141 128 123 126 121 126 137 123 119 108 105 90 88 75 25 13 7
216 214 206 197 197 167 177 182 176 173 173 170 173 176 135 127 130 131 129 138 143 135 127 120 125 115 133 149 130 81 32 49
216 210 205 202 190 186 171 178 172 173 168 168 171 145 126 133 132 134 140 141 142 142 141 137 127 128 129 104 108 101 69 19
218 202 203 204 178 183 165 170 171 168 161 163 143 129 131 135 139 142 149 144 145 137 136 120 117 122 111 106 101 75 77 28
189 196 204 203 169 172 185 164 174 160 157 130 131 132 135 138 143 145 138 145 139 133 127 128 129 116 108 93 89 105 80 63
200 193 180 210 170 166 169 149 158 150 141 134 131 136 140 133 136 132 135 137 131 128 123 110 121 115 119 115 92 80 73 62